Location: Newark
(34.4697°S, 57.8467°W)
Time: 01:31:30
(UTC+00:00)

N. Korean satellite - Pass Details

Date: 19 July 2019
Orbit: 457 x 507 km, 97.2° (Epoch: 20 August)

Event Time Altitude Azimuth Distance (km) Brightness Sun altitude
Rises 08:25:27 0° 41° (NE) 2,602 10.9 -30.2°
Reaches altitude 10° 08:27:50 10° 56° (NE) 1,722 10.1 -29.7°
Maximum altitude 08:30:46 22° 108° (ESE) 1,137 9.0 -29.1°
Enters shadow 08:31:34 21° 127° (SE) 1,191 8.9 -29.0°
